Date String (YYYY-MM-DD hh:mm:ss) UTC,Instrument flags,Ambient pressure (hPa),Sample flow (lpm),Bypass flow (lpm),Sample temperature (°C),Ambient temperature (°C),ASC tube jacket temperature (°C),LED temperature (°C),Box temperature (°C),Sample RH (%),Span deviation,Mass concentration (μg/m³),Mass concentration (μg/m³),Mass concentration (μg/m³)
DateTimeUTC,F1_M11,P_M11,Q1_M11,Q2_M11,T1_M11,T2_M11,T3_M11,T4_M11,T5_M11,U1_M11,ZSPAN_M11,X0_M11,X2_M11,X1_M11
2022-05-16 05:00:00,,0829.2,4.99,0.00,29.7,28.0,00.0,38.7,31.5,14.9,0000.0,0010.50,0003.16,0001.62
2022-05-16 05:01:00,,0829.2,5.00,0.00,29.7,28.2,00.0,38.7,31.5,15.0,0000.0,0010.21,0003.19,0001.63
2022-05-16 05:02:00,,0829.2,4.99,0.00,29.8,28.3,00.0,38.7,31.5,15.2,0000.0,0010.45,0003.21,0001.63
2022-05-16 05:03:00,,0829.2,5.00,0.00,29.8,28.4,00.0,38.7,31.6,15.2,0000.0,0010.35,0003.20,0001.62
2022-05-16 05:04:00,,0829.2,5.01,0.00,29.8,28.5,00.0,38.7,31.6,15.2,0000.0,0010.32,0003.16,0001.62
2022-05-16 05:05:00,,0829.2,5.01,0.00,29.8,28.5,00.0,38.7,31.6,15.1,0000.0,0010.17,0003.17,0001.62
2022-05-16 05:06:00,,0829.2,5.00,0.00,29.8,28.6,00.0,38.7,31.6,15.1,0000.0,0010.49,0003.19,0001.63
2022-05-16 05:07:00,,0829.2,5.00,0.00,29.8,28.7,00.0,38.7,31.6,15.1,0000.0,0010.79,0003.21,0001.65
2022-05-16 05:08:00,,0829.2,4.99,0.00,29.9,28.7,00.0,38.7,31.7,15.1,0000.0,0011.96,0003.25,0001.66
2022-05-16 05:09:00,,0829.1,5.00,0.00,29.9,28.8,00.0,38.7,31.7,15.1,0000.0,0011.44,0003.25,0001.66
2022-05-16 05:10:00,,0829.1,5.01,0.00,29.9,28.8,00.0,38.8,31.7,15.2,0000.0,0011.28,0003.25,0001.65
2022-05-16 05:11:00,,0829.1,5.00,0.00,29.9,28.8,00.0,38.8,31.7,15.0,0000.0,0011.60,0003.22,0001.65
2022-05-16 05:12:00,,0829.1,4.99,0.00,29.9,28.8,00.0,38.8,31.7,15.0,0000.0,0011.66,0003.17,0001.66
2022-05-16 05:13:00,,0829.1,5.01,0.00,29.9,28.8,00.0,38.8,31.7,14.9,0000.0,0011.71,0003.16,0001.66
2022-05-16 05:14:00,,0829.0,5.01,0.00,30.0,28.8,00.0,38.8,31.7,14.8,0000.0,0012.39,0003.15,0001.65
2022-05-16 05:15:00,,0829.0,5.00,0.00,30.0,28.8,00.0,38.8,31.7,14.7,0000.0,0013.16,0003.16,0001.65
2022-05-16 05:16:00,,0829.0,5.00,0.00,30.0,28.8,00.0,38.8,31.8,14.7,0000.0,0014.21,0003.21,0001.65
2022-05-16 05:17:00,,0828.9,5.00,0.00,30.0,28.8,00.0,38.9,31.8,14.8,0000.0,0013.72,0003.26,0001.65
2022-05-16 05:18:00,,0829.0,5.00,0.00,30.0,28.8,00.0,38.9,31.8,15.0,0000.0,0013.41,0003.26,0001.66
2022-05-16 05:19:00,,0828.9,4.99,0.00,30.0,28.9,00.0,38.9,31.7,15.1,0000.0,0012.59,0003.24,0001.66
2022-05-16 05:20:00,,0828.9,5.00,0.00,30.1,28.9,00.0,38.9,31.8,15.0,0000.0,0013.01,0003.29,0001.67
2022-05-16 05:21:00,,0829.1,4.99,0.00,30.1,28.9,00.0,38.9,31.8,14.9,0000.0,0013.36,0003.33,0001.68
2022-05-16 05:22:00,,0829.3,5.00,0.00,30.1,28.9,00.0,38.9,31.8,14.7,0000.0,0013.05,0003.36,0001.68
2022-05-16 05:23:00,,0829.2,5.00,0.00,30.1,28.9,00.0,38.9,31.8,14.7,0000.0,0013.79,0003.40,0001.70
2022-05-16 05:24:00,,0828.7,5.00,0.00,30.1,28.9,00.0,38.9,31.9,14.8,0000.0,0013.55,0003.41,0001.71
2022-05-16 05:25:00,,0828.7,5.01,0.00,30.1,28.9,00.0,39.0,31.8,14.9,0000.0,0013.34,0003.44,0001.74
2022-05-16 05:26:00,,0828.7,5.01,0.00,30.1,28.9,00.0,39.0,31.8,14.8,0000.0,0012.66,0003.42,0001.75
2022-05-16 05:27:00,,0828.6,4.99,0.00,30.1,28.9,00.0,39.0,31.8,14.8,0000.0,0011.70,0003.41,0001.76
2022-05-16 05:28:00,,0828.9,4.99,0.00,30.1,28.9,00.0,39.0,31.8,15.0,0000.0,0011.08,0003.33,0001.76
2022-05-16 05:29:00,,0828.6,5.02,0.00,30.1,28.2,00.0,39.0,31.7,15.0,0000.0,0010.97,0003.31,0001.75
2022-05-16 05:30:00,,0828.7,5.00,0.00,30.0,25.8,00.0,39.0,31.2,15.1,0000.0,0011.11,0003.34,0001.75
2022-05-16 05:31:00,,0828.6,5.00,0.00,29.8,25.4,00.0,38.9,31.1,15.0,0000.0,0010.79,0003.35,0001.76
2022-05-16 05:32:00,,0828.7,5.00,0.00,29.7,25.7,00.0,38.9,31.2,15.0,0000.0,0010.75,0003.32,0001.75
2022-05-16 05:33:00,,0828.5,5.01,0.00,29.7,26.2,00.0,38.8,31.2,15.1,0000.0,0011.43,0003.24,0001.74
2022-05-16 05:34:00,,0828.6,4.99,0.00,29.6,26.6,00.0,38.8,31.2,15.4,0000.0,0011.50,0003.23,0001.73
2022-05-16 05:35:00,,0829.0,5.01,0.00,29.6,27.0,00.0,38.7,31.3,15.4,0000.0,0011.21,0003.19,0001.73
2022-05-16 05:36:00,,0829.1,5.00,0.00,29.6,27.4,00.0,38.7,31.3,15.2,0000.0,0010.97,0003.14,0001.70
2022-05-16 05:37:00,,0829.0,5.01,0.00,29.6,27.6,00.0,38.7,31.3,15.2,0000.0,0012.52,0003.19,0001.70
2022-05-16 05:38:00,,0829.0,5.00,0.00,29.6,27.8,00.0,38.7,31.4,15.2,0000.0,0013.31,0003.20,0001.69
2022-05-16 05:39:00,,0828.8,4.99,0.00,29.6,28.0,00.0,38.7,31.4,15.2,0000.0,0013.68,0003.24,0001.69
2022-05-16 05:40:00,,0828.7,5.00,0.00,29.6,28.1,00.0,38.7,31.4,15.1,0000.0,0014.00,0003.31,0001.70
2022-05-16 05:41:00,,0828.5,5.00,0.00,29.7,28.2,00.0,38.7,31.4,15.0,0000.0,0013.73,0003.32,0001.69
2022-05-16 05:42:00,,0828.5,4.99,0.00,29.7,28.3,00.0,38.6,31.4,15.0,0000.0,0013.39,0003.31,0001.68
2022-05-16 05:43:00,,0828.6,5.00,0.00,29.7,28.3,00.0,38.6,31.5,15.1,0000.0,0013.33,0003.34,0001.67
2022-05-16 05:44:00,,0828.6,5.01,0.00,29.7,28.4,00.0,38.7,31.5,15.1,0000.0,0012.72,0003.37,0001.67
2022-05-16 05:45:00,,0828.5,5.00,0.00,29.7,28.5,00.0,38.7,31.4,15.1,0000.0,0011.31,0003.31,0001.66
2022-05-16 05:46:00,,0828.6,5.01,0.00,29.7,28.5,00.0,38.7,31.4,14.9,0000.0,0011.64,0003.31,0001.65
2022-05-16 05:47:00,,0828.5,5.00,0.00,29.7,28.5,00.0,38.7,31.5,14.9,0000.0,0011.60,0003.34,0001.65
2022-05-16 05:48:00,,0828.5,5.00,0.00,29.8,28.5,00.0,38.7,31.5,14.8,0000.0,0010.44,0003.31,0001.65
2022-05-16 05:49:00,,0828.5,5.00,0.00,29.8,28.5,00.0,38.7,31.5,14.8,0000.0,0009.52,0003.26,0001.64
2022-05-16 05:50:00,,0828.4,5.00,0.00,29.8,28.5,00.0,38.7,31.5,14.7,0000.0,0009.01,0003.22,0001.62
2022-05-16 05:51:00,,0828.4,5.00,0.00,29.8,28.5,00.0,38.7,31.5,14.7,0000.0,0008.89,0003.19,0001.62
2022-05-16 05:52:00,,0828.4,5.00,0.00,29.8,28.5,00.0,38.7,31.5,14.7,0000.0,0008.75,0003.11,0001.61
2022-05-16 05:53:00,,0828.3,5.00,0.00,29.8,28.5,00.0,38.7,31.5,14.7,0000.0,0008.88,0003.02,0001.59
2022-05-16 05:54:00,,0828.3,5.01,0.00,29.8,28.5,00.0,38.7,31.5,14.7,0000.0,0008.75,0003.01,0001.58
2022-05-16 05:55:00,,0828.3,5.00,0.00,29.8,28.5,00.0,38.7,31.5,14.6,0000.0,0008.64,0002.95,0001.57
2022-05-16 05:56:00,,0828.3,5.00,0.00,29.8,28.5,00.0,38.7,31.6,14.7,0000.0,0009.74,0003.05,0001.57
2022-05-16 05:57:00,,0828.3,5.00,0.00,29.8,28.5,00.0,38.7,31.5,14.8,0000.0,0010.11,0003.14,0001.57
2022-05-16 05:58:00,,0828.3,5.00,0.00,29.9,28.5,00.0,38.8,31.5,14.9,0000.0,0010.16,0003.16,0001.57
2022-05-16 05:59:00,,0828.3,5.01,0.00,29.9,28.6,00.0,38.8,31.6,14.8,0000.0,0010.01,0003.20,0001.58
